SB KEPS @ AMSAT $ORB14338.O Orbital Elements 14338.OSCAR
HR AMSAT ORBITAL ELEMENTS FOR OSCAR SATELLITES FROM WA5QGD FORT WORTH,TX December 4, 2014 BID: ORB14338.O TO ALL RADIO AMATEURS BT
Satellite: AO-07 Catalog number: 07530 Epoch time: 14338.19996713 Element set: 134 Inclination: 101.4953 deg RA of node: 314.5647 deg Eccentricity: 0.0011823 Arg of perigee: 324.8248 deg Mean anomaly: 103.4970 deg Mean motion: 12.53609879 rev/day Decay rate: -4.1e-07 rev/day^2 Epoch rev: 83282 Checksum: 307
Satellite: FO-29 Catalog number: 24278 Epoch time: 14338.31173648 Element set: 532 Inclination: 098.5182 deg RA of node: 328.7077 deg Eccentricity: 0.0350021 Arg of perigee: 216.0760 deg Mean anomaly: 252.5700 deg Mean motion: 13.53038052 rev/day Decay rate: -2.9e-07 rev/day^2 Epoch rev: 90367 Checksum: 295
Satellite: SO-33 Catalog number: 25509 Epoch time: 14338.18155547 Element set: 894 Inclination: 031.4334 deg RA of node: 277.0510 deg Eccentricity: 0.0348880 Arg of perigee: 163.9950 deg Mean anomaly: 337.6261 deg Mean motion: 14.29762159 rev/day Decay rate: 5.65e-06 rev/day^2 Epoch rev: 84149 Checksum: 333
Satellite: RS-22 Catalog number: 27939 Epoch time: 14338.80711522 Element set: 99 Inclination: 097.8192 deg RA of node: 144.6499 deg Eccentricity: 0.0012254 Arg of perigee: 288.0500 deg Mean anomaly: 071.9376 deg Mean motion: 14.65579485 rev/day Decay rate: 1.894e-05 rev/day^2 Epoch rev: 59771 Checksum: 354
Satellite: HO-68 Catalog number: 36122 Epoch time: 14338.74417351 Element set: 179 Inclination: 100.2261 deg RA of node: 025.2422 deg Eccentricity: 0.0007362 Arg of perigee: 204.4499 deg Mean anomaly: 155.6263 deg Mean motion: 13.16320925 rev/day Decay rate: -6.0e-07 rev/day^2 Epoch rev: 23887 Checksum: 281
Satellite: AO-73 Catalog number: 39444 Epoch time: 14338.14660213 Element set: 323 Inclination: 097.7582 deg RA of node: 042.9216 deg Eccentricity: 0.0061976 Arg of perigee: 051.9601 deg Mean anomaly: 308.7182 deg Mean motion: 14.79170716 rev/day Decay rate: 3.348e-05 rev/day^2 Epoch rev: 5458 Checksum: 318
Satellite: EO-79 Catalog number: 40025 Epoch time: 14338.70270693 Element set: 496 Inclination: 097.9684 deg RA of node: 233.6165 deg Eccentricity: 0.0014391 Arg of perigee: 098.5704 deg Mean anomaly: 261.7146 deg Mean motion: 14.86043145 rev/day Decay rate: 4.611e-05 rev/day^2 Epoch rev: 2490 Checksum: 318
/EX SB KEPS @ AMSAT $ORB14338.D Orbital Elements 14338.MICROS
HR AMSAT ORBITAL ELEMENTS FOR THE MICROSATS FROM WA5QGD FORT WORTH,TX December 4, 2014 BID: ORB14338.D TO ALL RADIO AMATEURS BT
Satellite: UO-11 Catalog number: 14781 Epoch time: 14338.20552180 Element set: 680 Inclination: 097.8303 deg RA of node: 034.8377 deg Eccentricity: 0.0008084 Arg of perigee: 356.2639 deg Mean anomaly: 003.8513 deg Mean motion: 14.81960612 rev/day Decay rate: 1.176e-05 rev/day^2 Epoch rev: 65314 Checksum: 296
Satellite: AO-16 Catalog number: 20439 Epoch time: 14337.43980501 Element set: 185 Inclination: 098.5240 deg RA of node: 271.7048 deg Eccentricity: 0.0011144 Arg of perigee: 025.4900 deg Mean anomaly: 107.5270 deg Mean motion: 14.32442486 rev/day Decay rate: 2.69e-06 rev/day^2 Epoch rev: 29871 Checksum: 289
Satellite: LO-19 Catalog number: 20442 Epoch time: 14338.35416619 Element set: 119 Inclination: 098.4952 deg RA of node: 272.7467 deg Eccentricity: 0.0011753 Arg of perigee: 010.8945 deg Mean anomaly: 349.2491 deg Mean motion: 14.32641006 rev/day Decay rate: 2.72e-06 rev/day^2 Epoch rev: 29904 Checksum: 307
Satellite: AO-27 Catalog number: 22825 Epoch time: 14338.47275609 Element set: 834 Inclination: 098.6848 deg RA of node: 283.8126 deg Eccentricity: 0.0009083 Arg of perigee: 152.9991 deg Mean anomaly: 344.9271 deg Mean motion: 14.29794685 rev/day Decay rate: 1.93e-06 rev/day^2 Epoch rev: 10511 Checksum: 347
Satellite: IO-26 Catalog number: 22826 Epoch time: 14338.47518412 Element set: 591 Inclination: 098.6788 deg RA of node: 284.0087 deg Eccentricity: 0.0009724 Arg of perigee: 146.0541 deg Mean anomaly: 214.1265 deg Mean motion: 14.30102554 rev/day Decay rate: 2.17e-06 rev/day^2 Epoch rev: 10525 Checksum: 291
Satellite: GO-32 Catalog number: 25397 Epoch time: 14338.49148212 Element set: 512 Inclination: 098.4944 deg RA of node: 290.3260 deg Eccentricity: 0.0001974 Arg of perigee: 139.8148 deg Mean anomaly: 356.6512 deg Mean motion: 14.23491866 rev/day Decay rate: 1.02e-06 rev/day^2 Epoch rev: 85209 Checksum: 313
Satellite: NO-44 Catalog number: 26931 Epoch time: 14337.91330224 Element set: 767 Inclination: 067.0525 deg RA of node: 320.7602 deg Eccentricity: 0.0007417 Arg of perigee: 270.9487 deg Mean anomaly: 089.0764 deg Mean motion: 14.30208413 rev/day Decay rate: 1.75e-06 rev/day^2 Epoch rev: 68787 Checksum: 311
Satellite: SO-50 Catalog number: 27607 Epoch time: 14338.45393168 Element set: 591 Inclination: 064.5571 deg RA of node: 073.1738 deg Eccentricity: 0.0066738 Arg of perigee: 327.5033 deg Mean anomaly: 032.2449 deg Mean motion: 14.74196934 rev/day Decay rate: 2.266e-05 rev/day^2 Epoch rev: 64257 Checksum: 331
Satellite: CO-55 Catalog number: 27844 Epoch time: 14338.25189009 Element set: 84 Inclination: 098.6971 deg RA of node: 344.5763 deg Eccentricity: 0.0010542 Arg of perigee: 140.5878 deg Mean anomaly: 279.3213 deg Mean motion: 14.21640525 rev/day Decay rate: 3.99e-06 rev/day^2 Epoch rev: 59274 Checksum: 332
Satellite: CO-57 Catalog number: 27848 Epoch time: 14338.36459851 Element set: 24 Inclination: 098.7067 deg RA of node: 344.4914 deg Eccentricity: 0.0010294 Arg of perigee: 146.4405 deg Mean anomaly: 269.6559 deg Mean motion: 14.21310204 rev/day Decay rate: 3.54e-06 rev/day^2 Epoch rev: 59267 Checksum: 324
Satellite: AO-51 Catalog number: 28375 Epoch time: 14338.41340045 Element set: 6 Inclination: 098.2723 deg RA of node: 279.6994 deg Eccentricity: 0.0082770 Arg of perigee: 197.0737 deg Mean anomaly: 162.7664 deg Mean motion: 14.41518663 rev/day Decay rate: 2.82e-06 rev/day^2 Epoch rev: 54842 Checksum: 328
Satellite: CP3 Catalog number: 31129 Epoch time: 14337.49787234 Element set: 914 Inclination: 097.9550 deg RA of node: 307.1310 deg Eccentricity: 0.0097052 Arg of perigee: 202.7766 deg Mean anomaly: 275.0121 deg Mean motion: 14.55209304 rev/day Decay rate: 1.707e-05 rev/day^2 Epoch rev: 40465 Checksum: 291
Satellite: CO-65 Catalog number: 32785 Epoch time: 14338.03584863 Element set: 131 Inclination: 097.6780 deg RA of node: 023.5967 deg Eccentricity: 0.0013353 Arg of perigee: 356.5905 deg Mean anomaly: 065.6469 deg Mean motion: 14.85991340 rev/day Decay rate: 2.698e-05 rev/day^2 Epoch rev: 35724 Checksum: 349
Satellite: PRISM Catalog number: 33493 Epoch time: 14338.78022745 Element set: 546 Inclination: 098.2523 deg RA of node: 161.9279 deg Eccentricity: 0.0016411 Arg of perigee: 247.1517 deg Mean anomaly: 112.7963 deg Mean motion: 14.91099710 rev/day Decay rate: 8.959e-05 rev/day^2 Epoch rev: 31758 Checksum: 328
Satellite: SOHLA-1 Catalog number: 33496 Epoch time: 14338.38440303 Element set: 529 Inclination: 098.1894 deg RA of node: 099.9620 deg Eccentricity: 0.0007316 Arg of perigee: 069.6255 deg Mean anomaly: 326.4025 deg Mean motion: 14.71059917 rev/day Decay rate: 8.57e-06 rev/day^2 Epoch rev: 31453 Checksum: 322
Satellite: TISAT-1 Catalog number: 36799 Epoch time: 14338.23806841 Element set: 756 Inclination: 098.0187 deg RA of node: 071.6143 deg Eccentricity: 0.0014393 Arg of perigee: 124.6187 deg Mean anomaly: 287.9898 deg Mean motion: 14.86895379 rev/day Decay rate: 5.321e-05 rev/day^2 Epoch rev: 23797 Checksum: 367
Satellite: STUDSAT Catalog number: 36801 Epoch time: 14336.80415644 Element set: 945 Inclination: 098.0547 deg RA of node: 082.0306 deg Eccentricity: 0.0005872 Arg of perigee: 087.2305 deg Mean anomaly: 064.9821 deg Mean motion: 15.02327791 rev/day Decay rate: 2.9987e-04 rev/day^2 Epoch rev: 23838 Checksum: 317
Satellite: ALMASAT-1 Catalog number: 38078 Epoch time: 14338.65477524 Element set: 223 Inclination: 069.4673 deg RA of node: 005.0087 deg Eccentricity: 0.0543086 Arg of perigee: 164.3969 deg Mean anomaly: 197.4709 deg Mean motion: 14.62637672 rev/day Decay rate: 5.0087e-04 rev/day^2 Epoch rev: 14643 Checksum: 339
Satellite: XATCOBEO Catalog number: 38082 Epoch time: 14243.34478676 Element set: 563 Inclination: 069.3815 deg RA of node: 097.0364 deg Eccentricity: 0.0033293 Arg of perigee: 225.1799 deg Mean anomaly: 135.4582 deg Mean motion: 16.41261006 rev/day Decay rate: 1.3583328e-01 rev/day^2 Epoch rev: 13623 Checksum: 317
Satellite: CUBEBUG-1 Catalog number: 39153 Epoch time: 14338.28914901 Element set: 693 Inclination: 098.0332 deg RA of node: 058.2034 deg Eccentricity: 0.0018256 Arg of perigee: 159.2900 deg Mean anomaly: 200.9055 deg Mean motion: 14.78379950 rev/day Decay rate: 3.785e-05 rev/day^2 Epoch rev: 8667 Checksum: 321
Satellite: ESTCUBE-1 Catalog number: 39161 Epoch time: 14338.77900332 Element set: 723 Inclination: 098.0875 deg RA of node: 058.3660 deg Eccentricity: 0.0009293 Arg of perigee: 208.5411 deg Mean anomaly: 151.5286 deg Mean motion: 14.70515362 rev/day Decay rate: 2.777e-05 rev/day^2 Epoch rev: 8466 Checksum: 310
Satellite: DUCHIFAT-1 Catalog number: 40021 Epoch time: 14338.67992415 Element set: 497 Inclination: 097.9685 deg RA of node: 233.6813 deg Eccentricity: 0.0015036 Arg of perigee: 099.2267 deg Mean anomaly: 261.0667 deg Mean motion: 14.86443472 rev/day Decay rate: 6.118e-05 rev/day^2 Epoch rev: 2489 Checksum: 329
Satellite: NANOSATCBR1 Catalog number: 40024 Epoch time: 14338.69475209 Element set: 489 Inclination: 097.9670 deg RA of node: 233.6268 deg Eccentricity: 0.0014443 Arg of perigee: 098.0090 deg Mean anomaly: 262.2784 deg Mean motion: 14.86228515 rev/day Decay rate: 5.510e-05 rev/day^2 Epoch rev: 2489 Checksum: 318
